Time,TemperatureF,DewpointF,PressureIn,WindDirection,WindDirectionDegrees,WindSpeedMPH,WindSpeedGustMPH,Humidity,HourlyPrecipIn,Conditions,Clouds,dailyrainin,SolarRadiationWatts/m^2,SoftwareType,DateUTC
2013-06-30 00:01:00,77.0,74.0,-100.00,South,179,6.0,-999.0,90,0.00,,,-99.99,0.000000,,2013-06-30 04:01:00,
2013-06-30 00:22:00,77.0,74.0,-100.00,South,172,6.0,-999.0,91,0.00,,,-99.99,0.000000,,2013-06-30 04:22:00,
2013-06-30 00:33:00,77.0,75.0,-100.00,South,175,8.0,-999.0,91,0.00,,,-99.99,0.000000,,2013-06-30 04:33:00,
2013-06-30 00:53:00,77.0,75.0,-100.00,South,176,8.0,-999.0,92,0.00,,,-99.99,0.000000,,2013-06-30 04:53:00,
2013-06-30 01:02:00,77.0,75.0,-100.00,South,176,7.0,-999.0,93,0.00,,,-99.99,0.000000,,2013-06-30 05:02:00,
2013-06-30 01:22:00,77.0,75.0,-100.00,South,180,8.0,-999.0,93,0.00,,,-99.99,0.000000,,2013-06-30 05:22:00,
2013-06-30 01:34:00,77.0,75.0,-100.00,SSW,193,6.0,-999.0,93,0.00,,,-99.99,0.000000,,2013-06-30 05:34:00,
2013-06-30 01:53:00,77.0,75.0,-100.00,South,190,5.0,-999.0,93,0.00,,,-99.99,0.000000,,2013-06-30 05:53:00,
2013-06-30 02:02:00,77.0,75.0,-100.00,South,188,5.0,-999.0,93,0.00,,,-99.99,0.000000,,2013-06-30 06:02:00,
2013-06-30 02:12:00,77.0,75.0,-100.00,South,188,5.0,-999.0,93,0.00,,,-99.99,0.000000,,2013-06-30 06:12:00,
2013-06-30 02:23:00,77.0,75.0,-100.00,South,189,6.0,-999.0,93,0.00,,,-99.99,0.000000,,2013-06-30 06:23:00,
2013-06-30 02:34:00,76.0,75.0,-100.00,South,191,7.0,-999.0,93,0.00,,,-99.99,0.000000,,2013-06-30 06:34:00,
2013-06-30 02:53:00,76.0,74.0,-100.00,South,185,7.0,-999.0,94,0.00,,,-99.99,0.000000,,2013-06-30 06:53:00,
2013-06-30 03:02:00,76.0,74.0,-100.00,South,179,6.0,-999.0,94,0.00,,,-99.99,0.000000,,2013-06-30 07:02:00,
2013-06-30 03:22:00,76.0,74.0,-100.00,South,177,5.0,-999.0,94,0.00,,,-99.99,0.000000,,2013-06-30 07:22:00,
2013-06-30 03:33:00,76.0,74.0,-100.00,South,176,5.0,-999.0,95,0.00,,,-99.99,0.000000,,2013-06-30 07:33:00,
2013-06-30 03:53:00,76.0,74.0,-100.00,South,186,4.0,-999.0,95,0.00,,,-99.99,0.000000,,2013-06-30 07:53:00,
2013-06-30 04:02:00,76.0,74.0,-100.00,South,186,5.0,-999.0,96,0.00,,,-99.99,0.000000,,2013-06-30 08:02:00,
2013-06-30 04:22:00,76.0,74.0,-100.00,South,181,5.0,-999.0,96,0.00,,,-99.99,0.000000,,2013-06-30 08:22:00,
2013-06-30 04:33:00,75.0,74.0,-100.00,South,187,5.0,-999.0,96,0.00,,,-99.99,0.000000,,2013-06-30 08:33:00,
2013-06-30 04:53:00,75.0,74.0,-100.00,South,181,5.0,-999.0,96,0.00,,,-99.99,0.000000,,2013-06-30 08:53:00,
2013-06-30 05:01:00,75.0,74.0,-100.00,South,183,6.0,-999.0,96,0.00,,,-99.99,0.000000,,2013-06-30 09:01:00,
2013-06-30 05:23:00,75.0,74.0,-100.00,South,179,5.0,-999.0,96,0.00,,,-99.99,0.000000,,2013-06-30 09:23:00,
2013-06-30 05:34:00,75.0,74.0,-100.00,South,175,5.0,-999.0,96,0.00,,,-99.99,0.000000,,2013-06-30 09:34:00,
2013-06-30 05:53:00,75.0,74.0,-100.00,South,181,5.0,-999.0,96,0.00,,,-99.99,0.000000,,2013-06-30 09:53:00,
2013-06-30 06:02:00,75.0,74.0,-100.00,South,172,5.0,-999.0,96,0.00,,,-99.99,0.000000,,2013-06-30 10:02:00,
2013-06-30 06:22:00,75.0,74.0,-100.00,South,175,5.0,-999.0,97,0.00,,,-99.99,0.000000,,2013-06-30 10:22:00,
2013-06-30 06:33:00,75.0,74.0,-100.00,South,175,5.0,-999.0,97,0.00,,,-99.99,0.000000,,2013-06-30 10:33:00,
2013-06-30 06:53:00,75.0,74.0,-100.00,South,181,5.0,-999.0,97,0.00,,,-99.99,0.800000,,2013-06-30 10:53:00,
2013-06-30 07:02:00,75.0,74.0,-100.00,South,186,4.0,-999.0,96,0.00,,,-99.99,6.100000,,2013-06-30 11:02:00,
2013-06-30 07:22:00,75.0,74.0,-100.00,South,180,5.0,-999.0,96,0.00,,,-99.99,21.000000,,2013-06-30 11:22:00,
2013-06-30 07:53:00,76.0,75.0,-100.00,South,184,5.0,-999.0,95,0.00,,,-99.99,46.099998,,2013-06-30 11:53:00,
2013-06-30 08:02:00,77.0,75.0,-100.00,South,189,5.0,-999.0,94,0.00,,,-99.99,41.299999,,2013-06-30 12:02:00,
2013-06-30 08:24:00,78.0,76.0,-100.00,South,191,6.0,-999.0,93,0.00,,,-99.99,146.399994,,2013-06-30 12:24:00,
2013-06-30 08:52:00,80.0,76.0,-100.00,SSW,197,6.0,-999.0,90,0.00,,,-99.99,187.899994,,2013-06-30 12:52:00,
2013-06-30 09:22:00,81.0,77.0,-100.00,SSW,208,6.0,-999.0,87,0.00,,,-99.99,253.500000,,2013-06-30 13:22:00,
2013-06-30 09:53:00,82.0,77.0,-100.00,SSW,200,8.0,-999.0,84,0.00,,,-99.99,348.500000,,2013-06-30 13:53:00,
2013-06-30 10:02:00,83.0,77.0,-100.00,SSW,209,8.0,-999.0,82,0.00,,,-99.99,385.700012,,2013-06-30 14:02:00,
2013-06-30 10:22:00,83.0,77.0,-100.00,SSW,211,8.0,-999.0,81,0.00,,,-99.99,499.100006,,2013-06-30 14:22:00,
2013-06-30 10:33:00,84.0,77.0,-100.00,SSW,203,7.0,-999.0,79,0.00,,,-99.99,437.299988,,2013-06-30 14:33:00,
2013-06-30 11:02:00,86.0,77.0,-100.00,SSW,200,9.0,-999.0,74,0.00,,,-99.99,666.799988,,2013-06-30 15:02:00,
2013-06-30 11:23:00,86.0,76.0,-100.00,SSW,207,9.0,-999.0,73,0.00,,,-99.99,664.500000,,2013-06-30 15:23:00,
2013-06-30 11:53:00,85.0,77.0,-100.00,SSE,165,7.0,-999.0,76,0.00,,,-99.99,272.100006,,2013-06-30 15:53:00,
2013-06-30 12:01:00,85.0,77.0,-100.00,South,190,5.0,-999.0,76,0.00,,,-99.99,378.799988,,2013-06-30 16:01:00,
2013-06-30 12:21:00,81.0,76.0,-100.00,SW,232,9.0,-999.0,83,0.54,,,-99.99,95.199997,,2013-06-30 16:21:00,
2013-06-30 12:53:00,81.0,78.0,-100.00,WSW,244,2.0,-999.0,88,0.00,,,-99.99,961.000000,,2013-06-30 16:53:00,
2013-06-30 13:53:00,77.0,75.0,-100.00,West,274,4.0,-999.0,92,0.00,,,-99.99,446.600006,,2013-06-30 17:53:00,
2013-06-30 14:02:00,77.0,75.0,-100.00,SW,223,6.0,-999.0,91,0.00,,,-99.99,161.699997,,2013-06-30 18:02:00,
2013-06-30 14:22:00,78.0,75.0,-100.00,SSW,203,4.0,-999.0,91,0.00,,,-99.99,133.899994,,2013-06-30 18:22:00,
2013-06-30 14:53:00,78.0,76.0,-100.00,SSW,192,5.0,-999.0,91,0.00,,,-99.99,315.799988,,2013-06-30 18:53:00,
2013-06-30 15:01:00,80.0,76.0,-100.00,SSW,197,4.0,-999.0,86,0.00,,,-99.99,521.200012,,2013-06-30 19:01:00,
2013-06-30 15:22:00,82.0,76.0,-100.00,SSW,213,4.0,-999.0,82,0.00,,,-99.99,501.299988,,2013-06-30 19:22:00,
2013-06-30 15:53:00,83.0,77.0,-100.00,SSW,207,6.0,-999.0,79,0.00,,,-99.99,540.000000,,2013-06-30 19:53:00,
2013-06-30 16:22:00,82.0,76.0,-100.00,South,186,6.0,-999.0,82,0.00,,,-99.99,93.400002,,2013-06-30 20:22:00,
2013-06-30 16:52:00,82.0,76.0,-100.00,South,177,8.0,-999.0,82,0.00,,,-99.99,308.600006,,2013-06-30 20:52:00,
2013-06-30 17:22:00,80.0,75.0,-100.00,SSE,164,9.0,-999.0,82,0.00,,,-99.99,182.000000,,2013-06-30 21:22:00,
2013-06-30 17:34:00,80.0,75.0,-100.00,South,174,9.0,-999.0,83,0.00,,,-99.99,131.000000,,2013-06-30 21:34:00,
2013-06-30 17:53:00,80.0,75.0,-100.00,South,181,9.0,-999.0,84,0.00,,,-99.99,117.000000,,2013-06-30 21:53:00,
2013-06-30 18:01:00,79.0,75.0,-100.00,South,170,8.0,-999.0,86,0.00,,,-99.99,77.199997,,2013-06-30 22:01:00,
2013-06-30 18:22:00,78.0,74.0,-100.00,South,178,9.0,-999.0,88,0.03,,,-99.99,35.200001,,2013-06-30 22:22:00,
2013-06-30 18:53:00,77.0,75.0,-100.00,South,181,6.0,-999.0,93,0.00,,,-99.99,40.599998,,2013-06-30 22:53:00,
2013-06-30 19:02:00,77.0,75.0,-100.00,South,187,5.0,-999.0,94,0.00,,,-99.99,14.600000,,2013-06-30 23:02:00,
2013-06-30 19:22:00,77.0,75.0,-100.00,South,175,6.0,-999.0,94,0.03,,,-99.99,17.299999,,2013-06-30 23:22:00,
2013-06-30 19:33:00,76.0,75.0,-100.00,SSE,167,7.0,-999.0,95,0.03,,,-99.99,39.000000,,2013-06-30 23:33:00,
2013-06-30 19:53:00,77.0,75.0,-100.00,SSE,164,8.0,-999.0,94,0.00,,,-99.99,39.000000,,2013-06-30 23:53:00,
2013-06-30 20:22:00,76.0,75.0,-100.00,South,169,8.0,-999.0,94,0.00,,,-99.99,15.300000,,2013-07-01 00:22:00,
2013-06-30 20:52:00,76.0,74.0,-100.00,SSE,159,7.0,-999.0,92,0.00,,,-99.99,4.200000,,2013-07-01 00:52:00,
2013-06-30 21:01:00,76.0,74.0,-100.00,SE,139,6.0,-999.0,92,0.00,,,-99.99,0.400000,,2013-07-01 01:01:00,
2013-06-30 21:22:00,76.0,74.0,-100.00,SSE,147,6.0,-999.0,93,0.00,,,-99.99,0.000000,,2013-07-01 01:22:00,
2013-06-30 21:42:00,76.0,74.0,-100.00,SE,145,6.0,-999.0,93,0.00,,,-99.99,0.000000,,2013-07-01 01:42:00,
2013-06-30 21:52:00,76.0,74.0,-100.00,SSE,154,6.0,-999.0,93,0.00,,,-99.99,0.000000,,2013-07-01 01:52:00,
2013-06-30 22:02:00,76.0,74.0,-100.00,SSE,154,6.0,-999.0,93,0.00,,,-99.99,0.000000,,2013-07-01 02:02:00,
2013-06-30 22:22:00,75.0,73.0,-100.00,SSE,153,5.0,-999.0,93,0.00,,,-99.99,0.000000,,2013-07-01 02:22:00,
2013-06-30 22:44:00,75.0,73.0,-100.00,SSE,159,5.0,-999.0,94,0.00,,,-99.99,0.000000,,2013-07-01 02:44:00,
2013-06-30 22:54:00,75.0,73.0,-100.00,SSE,167,6.0,-999.0,94,0.00,,,-99.99,0.000000,,2013-07-01 02:54:00,
2013-06-30 23:01:00,75.0,73.0,-100.00,South,171,7.0,-999.0,94,0.00,,,-99.99,0.000000,,2013-07-01 03:01:00,
2013-06-30 23:23:00,75.0,74.0,-100.00,SSE,166,8.0,-999.0,94,0.00,,,-99.99,0.000000,,2013-07-01 03:23:00,
2013-06-30 23:52:00,76.0,74.0,-100.00,South,174,6.0,-999.0,94,0.00,,,-99.99,0.000000,,2013-07-01 03:52:00,